Precipitable_Water
1.02 1.03 1.05 1.06 1.09 1.11 1.15 1.21 1.28 1.34 1.33 1.33 1.29 1.27 1.28 1.30 1.31 1.33 1.33 1.29 1.32 1.35 1.39 1.42 1.43 1.45 1.45 1.43 1.41 1.39 1.38 1.37 1.38 1.37 1.36 1.37 1.37 1.33 1.30 1.25 1.20 1.20 1.26 1.29 1.31 1.29 1.20 1.14 1.14 1.15 1.17 1.13 1.13 1.13 1.11 1.11 1.11 1.10 1.09 1.06 1.03 1.05 1.02 0.96 0.89 0.88 0.94 0.99 1.02 1.04 1.07 1.06 0.97 0.92 0.85 0.82 0.79 0.76 0.72 0.69 0.61 0.54 0.53 0.54 0.50
0.94 0.95 0.97 1.00 1.01 1.06 1.11 1.17 1.22 1.27 1.32 1.34 1.32 1.30 1.29 1.30 1.32 1.34 1.31 1.31 1.32 1.32 1.36 1.42 1.45 1.45 1.42 1.41 1.40 1.37 1.37 1.36 1.35 1.34 1.37 1.40 1.32 1.33 1.26 1.20 1.21 1.25 1.22 1.18 1.24 1.22 1.18 1.13 1.12 1.14 1.16 1.14 1.13 1.11 1.10 1.09 1.08 1.07 1.07 1.06 1.03 1.03 1.07 0.99 0.95 0.89 0.85 0.92 0.94 1.02 1.03 1.01 0.84 0.87 0.83 0.80 0.78 0.77 0.69 0.66 0.62 0.56 0.52 0.51 0.50
0.89 0.91 0.92 0.93 0.95 0.99 1.04 1.08 1.14 1.19 1.23 1.31 1.33 1.34 1.34 1.33 1.34 1.31 1.30 1.31 1.32 1.33 1.35 1.37 1.41 1.44 1.40 1.38 1.38 1.36 1.35 1.35 1.34 1.32 1.28 1.30 1.33 1.33 1.24 1.21 1.20 1.15 1.10 1.10 1.13 1.15 1.14 1.12 1.11 1.14 1.16 1.12 1.12 1.11 1.11 1.08 1.09 1.07 1.06 1.07 1.04 1.04 1.06 1.05 0.99 0.89 0.87 0.86 0.92 0.90 0.89 0.86 0.83 0.83 0.85 0.86 0.84 0.80 0.71 0.64 0.59 0.56 0.53 0.52 0.49
0.83 0.83 0.84 0.85 0.89 0.92 0.96 1.01 1.06 1.11 1.16 1.22 1.28 1.33 1.36 1.35 1.35 1.31 1.31 1.33 1.30 1.33 1.36 1.31 1.33 1.37 1.37 1.35 1.34 1.35 1.36 1.32 1.29 1.25 1.24 1.26 1.30 1.31 1.24 1.18 1.14 1.11 1.09 1.09 1.10 1.12 1.12 1.12 1.13 1.14 1.14 1.10 1.11 1.10 1.10 1.10 1.09 1.08 1.06 1.08 1.07 1.05 1.06 1.07 1.05 0.96 0.91 0.83 0.83 0.80 0.83 0.82 0.83 0.84 0.85 0.85 0.82 0.77 0.72 0.67 0.61 0.54 0.52 0.52 0.51
0.77 0.78 0.78 0.79 0.81 0.84 0.87 0.92 0.97 1.03 1.10 1.17 1.22 1.29 1.32 1.34 1.35 1.31 1.29 1.27 1.30 1.34 1.37 1.38 1.34 1.32 1.31 1.31 1.32 1.35 1.37 1.32 1.27 1.25 1.24 1.26 1.27 1.23 1.16 1.14 1.12 1.10 1.09 1.10 1.11 1.12 1.13 1.13 1.15 1.16 1.14 1.11 1.11 1.08 1.08 1.05 1.07 1.07 1.05 1.07 1.07 1.07 1.07 1.07 1.06 1.01 0.93 0.87 0.85 0.84 0.85 0.85 0.86 0.84 0.85 0.80 0.81 0.80 0.77 0.68 0.61 0.55 0.52 0.53 0.54
0.74 0.73 0.75 0.75 0.76 0.79 0.83 0.87 0.90 0.95 1.01 1.09 1.18 1.26 1.31 1.32 1.32 1.31 1.29 1.26 1.29 1.32 1.32 1.34 1.35 1.32 1.30 1.30 1.32 1.35 1.37 1.31 1.25 1.25 1.25 1.22 1.18 1.14 1.13 1.13 1.13 1.12 1.13 1.15 1.16 1.16 1.16 1.17 1.19 1.18 1.16 1.10 1.09 1.08 1.08 1.05 1.05 1.04 1.03 1.06 1.07 1.07 1.05 1.05 1.05 1.00 0.94 0.91 0.89 0.85 0.87 0.85 0.84 0.85 0.86 0.85 0.79 0.74 0.71 0.69 0.66 0.60 0.55 0.52 0.53
0.73 0.72 0.73 0.72 0.72 0.74 0.77 0.81 0.86 0.90 0.95 1.00 1.07 1.16 1.25 1.30 1.31 1.29 1.30 1.28 1.27 1.26 1.30 1.31 1.34 1.33 1.30 1.29 1.29 1.32 1.33 1.29 1.25 1.25 1.25 1.21 1.14 1.11 1.12 1.14 1.15 1.16 1.18 1.19 1.28 1.29 1.20 1.20 1.20 1.19 1.16 1.14 1.11 1.07 1.07 1.07 1.05 1.04 1.05 1.07 1.09 1.07 1.04 1.03 1.03 1.00 0.96 0.92 0.91 0.92 0.89 0.91 0.91 0.86 0.88 0.88 0.83 0.78 0.71 0.66 0.60 0.59 0.56 0.52 0.50
0.72 0.72 0.71 0.70 0.70 0.71 0.73 0.76 0.81 0.86 0.90 0.95 0.99 1.04 1.12 1.21 1.27 1.30 1.30 1.28 1.27 1.26 1.27 1.29 1.33 1.34 1.30 1.28 1.29 1.33 1.31 1.27 1.25 1.26 1.25 1.19 1.14 1.13 1.14 1.15 1.16 1.17 1.20 1.18 1.20 1.29 1.28 1.23 1.22 1.22 1.18 1.16 1.13 1.12 1.11 1.08 1.08 1.06 1.09 1.10 1.10 1.07 1.04 1.03 1.01 1.00 0.97 0.95 0.91 0.89 0.91 0.90 0.90 0.91 0.87 0.85 0.79 0.75 0.72 0.66 0.56 0.52 0.50 0.51 0.50
0.71 0.70 0.70 0.69 0.69 0.70 0.71 0.74 0.77 0.81 0.86 0.89 0.92 0.96 1.01 1.08 1.16 1.23 1.27 1.28 1.29 1.29 1.30 1.30 1.29 1.30 1.31 1.26 1.26 1.31 1.30 1.25 1.25 1.26 1.22 1.18 1.17 1.17 1.19 1.18 1.17 1.17 1.17 1.21 1.26 1.29 1.24 1.24 1.24 1.24 1.27 1.19 1.17 1.16 1.15 1.15 1.11 1.05 1.09 1.12 1.10 1.08 1.04 1.01 0.98 0.97 0.97 0.96 0.92 0.93 0.93 0.90 0.88 0.84 0.79 0.78 0.74 0.69 0.70 0.66 0.56 0.54 0.52 0.49 0.49
0.70 0.69 0.68 0.68 0.69 0.70 0.71 0.72 0.73 0.76 0.80 0.83 0.85 0.89 0.95 1.02 1.07 1.12 1.17 1.23 1.27 1.30 1.30 1.30 1.29 1.29 1.29 1.28 1.25 1.26 1.28 1.27 1.27 1.27 1.22 1.17 1.16 1.17 1.18 1.17 1.16 1.14 1.12 1.12 1.14 1.17 1.24 1.27 1.22 1.23 1.26 1.20 1.17 1.16 1.16 1.16 1.17 1.16 1.15 1.13 1.10 1.06 1.01 0.97 0.95 0.95 0.97 0.97 0.97 0.93 0.88 0.87 0.87 0.83 0.78 0.78 0.78 0.77 0.71 0.67 0.59 0.58 0.55 0.52 0.53
0.68 0.68 0.67 0.69 0.69 0.70 0.70 0.70 0.71 0.71 0.74 0.79 0.82 0.86 0.89 0.96 1.03 1.08 1.12 1.17 1.22 1.26 1.28 1.27 1.29 1.29 1.28 1.28 1.26 1.23 1.25 1.26 1.28 1.27 1.22 1.18 1.16 1.14 1.14 1.14 1.14 1.12 1.10 1.08 1.07 1.10 1.14 1.18 1.18 1.18 1.18 1.15 1.14 1.14 1.14 1.14 1.14 1.15 1.15 1.18 1.19 1.15 1.07 0.99 0.95 0.95 0.93 0.94 0.96 0.95 0.99 1.03 0.98 0.95 0.87 0.84 0.82 0.78 0.72 0.69 0.64 0.62 0.58 0.56 0.54
0.67 0.67 0.68 0.68 0.68 0.68 0.69 0.69 0.69 0.69 0.70 0.72 0.78 0.82 0.86 0.89 0.93 1.00 1.07 1.12 1.18 1.24 1.25 1.24 1.28 1.27 1.28 1.27 1.27 1.25 1.21 1.23 1.27 1.27 1.23 1.18 1.14 1.14 1.16 1.15 1.13 1.12 1.11 1.10 1.11 1.11 1.11 1.11 1.12 1.11 1.09 1.08 1.07 1.07 1.06 1.06 1.06 1.07 1.09 1.10 1.11 1.15 1.16 1.11 1.03 0.97 0.95 0.91 0.90 0.90 0.92 0.94 0.98 0.99 0.92 0.90 0.87 0.84 0.81 0.74 0.69 0.67 0.65 0.62 0.62
0.66 0.66 0.67 0.67 0.67 0.67 0.67 0.67 0.67 0.68 0.68 0.68 0.72 0.77 0.80 0.83 0.87 0.90 0.97 1.08 1.16 1.18 1.20 1.22 1.26 1.24 1.28 1.25 1.26 1.27 1.24 1.24 1.27 1.26 1.22 1.17 1.14 1.15 1.18 1.17 1.12 1.10 1.11 1.12 1.12 1.10 1.08 1.06 1.05 1.04 1.02 1.03 1.03 1.03 1.03 1.01 1.02 1.03 1.04 1.05 1.06 1.08 1.09 1.11 1.13 1.10 1.08 1.00 0.94 0.95 0.96 0.99 0.99 1.02 1.04 0.98 0.96 0.88 0.84 0.76 0.72 0.69 0.68 0.65 0.67
0.65 0.64 0.65 0.65 0.66 0.67 0.67 0.66 0.65 0.66 0.67 0.67 0.68 0.69 0.73 0.76 0.81 0.87 0.91 0.98 1.06 1.13 1.18 1.20 1.20 1.22 1.29 1.24 1.24 1.27 1.24 1.26 1.25 1.22 1.19 1.14 1.13 1.16 1.17 1.16 1.12 1.09 1.08 1.10 1.09 1.07 1.05 1.02 1.00 0.98 0.98 0.97 0.97 0.96 0.96 0.97 0.97 0.98 0.98 0.99 1.00 1.02 1.04 1.06 1.09 1.13 1.14 1.09 1.04 0.99 1.04 1.02 0.96 1.02 1.10 1.09 1.00 0.89 0.82 0.75 0.74 0.70 0.70 0.70 0.76
0.64 0.64 0.64 0.65 0.65 0.66 0.66 0.66 0.65 0.65 0.66 0.66 0.65 0.66 0.67 0.72 0.75 0.79 0.84 0.89 0.95 1.04 1.10 1.12 1.15 1.18 1.23 1.28 1.23 1.22 1.24 1.25 1.23 1.19 1.15 1.13 1.14 1.17 1.17 1.14 1.10 1.06 1.06 1.10 1.10 1.07 1.06 1.04 1.01 0.96 0.93 0.91 0.91 0.90 0.88 0.87 0.87 0.88 0.89 0.91 0.94 0.95 0.97 1.00 1.05 1.11 1.14 1.15 1.12 1.10 1.08 1.09 1.08 1.08 1.06 1.04 0.99 0.93 0.86 0.80 0.80 0.79 0.83 0.89 0.90
0.63 0.63 0.63 0.64 0.64 0.65 0.65 0.65 0.65 0.65 0.65 0.65 0.64 0.64 0.65 0.67 0.70 0.75 0.78 0.83 0.90 0.98 1.05 1.09 1.09 1.13 1.20 1.22 1.21 1.20 1.21 1.19 1.20 1.18 1.14 1.14 1.15 1.14 1.12 1.08 1.03 1.01 1.02 1.08 1.09 1.09 1.08 1.06 1.01 0.95 0.93 0.89 0.87 0.86 0.86 0.87 0.86 0.84 0.84 0.86 0.88 0.91 0.92 0.96 1.00 1.06 1.12 1.15 1.13 1.10 1.04 1.00 0.98 0.97 0.98 0.98 0.97 0.97 0.94 0.95 0.97 0.97 0.95 0.90 0.88
0.63 0.63 0.63 0.64 0.65 0.65 0.65 0.65 0.65 0.64 0.65 0.64 0.64 0.64 0.64 0.66 0.69 0.73 0.74 0.77 0.81 0.88 0.96 1.03 1.08 1.09 1.15 1.21 1.20 1.19 1.20 1.22 1.20 1.17 1.14 1.13 1.11 1.09 1.05 1.03 1.01 1.02 1.04 1.06 1.08 1.08 1.07 1.06 1.02 0.96 0.93 0.90 0.88 0.85 0.85 0.87 0.86 0.83 0.81 0.80 0.81 0.81 0.83 0.88 0.92 0.95 0.98 1.01 1.03 1.03 1.02 1.00 1.00 1.01 1.02 1.02 1.01 1.02 0.99 0.94 0.91 0.95 0.90 0.85 0.85
0.64 0.64 0.65 0.66 0.67 0.67 0.67 0.66 0.65 0.65 0.65 0.64 0.64 0.65 0.67 0.67 0.68 0.72 0.72 0.74 0.77 0.83 0.91 0.98 1.04 1.07 1.11 1.14 1.15 1.16 1.18 1.19 1.18 1.16 1.14 1.13 1.11 1.06 1.01 0.99 1.00 1.03 1.05 1.07 1.07 1.08 1.06 1.04 1.02 1.00 0.97 0.93 0.90 0.85 0.83 0.85 0.84 0.83 0.81 0.78 0.77 0.76 0.79 0.84 0.87 0.89 0.92 0.94 0.95 0.95 0.95 0.95 0.95 0.94 0.94 0.95 0.96 0.97 0.94 0.87 0.91 0.93 0.86 0.81 0.75
0.63 0.64 0.65 0.67 0.68 0.69 0.69 0.68 0.67 0.67 0.66 0.66 0.67 0.67 0.67 0.66 0.68 0.71 0.73 0.75 0.77 0.82 0.88 0.94 0.98 1.02 1.07 1.11 1.14 1.15 1.18 1.18 1.16 1.15 1.14 1.14 1.12 1.09 1.06 1.02 0.99 1.00 1.02 1.04 1.07 1.08 1.08 1.06 1.05 1.04 1.02 0.98 0.94 0.90 0.87 0.88 0.88 0.87 0.87 0.85 0.83 0.83 0.86 0.89 0.87 0.87 0.90 0.92 0.93 0.95 0.95 0.96 0.98 0.97 0.96 0.95 0.95 0.97 0.97 0.94 0.92 0.86 0.76 0.72 0.70
0.63 0.65 0.67 0.68 0.69 0.70 0.70 0.69 0.68 0.68 0.68 0.68 0.68 0.68 0.69 0.69 0.68 0.69 0.72 0.75 0.77 0.80 0.85 0.92 0.94 0.99 1.05 1.10 1.14 1.17 1.15 1.13 1.14 1.15 1.14 1.14 1.11 1.10 1.09 1.05 1.01 1.01 1.02 1.03 1.03 1.05 1.07 1.08 1.09 1.08 1.06 1.03 0.99 0.95 0.94 0.96 0.97 0.97 0.95 0.91 0.88 0.86 0.92 0.93 0.94 0.94 0.94 0.94 0.95 0.96 0.95 0.96 0.96 0.95 0.94 0.93 0.91 0.89 0.86 0.82 0.78 0.74 0.67 0.63 0.61
0.62 0.62 0.64 0.66 0.67 0.68 0.70 0.70 0.69 0.69 0.70 0.69 0.70 0.69 0.70 0.69 0.69 0.69 0.69 0.73 0.76 0.80 0.84 0.89 0.93 0.95 0.99 1.07 1.12 1.15 1.12 1.10 1.13 1.13 1.13 1.12 1.11 1.08 1.05 1.04 1.03 1.01 1.01 1.01 1.03 1.04 1.04 1.05 1.07 1.08 1.07 1.05 1.00 0.98 0.96 0.97 0.98 0.98 0.96 0.93 0.94 0.95 0.95 0.91 0.90 0.90 0.89 0.89 0.89 0.88 0.89 0.89 0.88 0.87 0.83 0.78 0.74 0.72 0.69 0.67 0.65 0.65 0.62 0.60 0.58
0.61 0.60 0.60 0.61 0.63 0.66 0.67 0.69 0.71 0.71 0.71 0.71 0.70 0.69 0.70 0.71 0.70 0.70 0.70 0.71 0.73 0.77 0.82 0.88 0.91 0.93 0.97 1.05 1.11 1.11 1.08 1.08 1.11 1.12 1.09 1.08 1.08 1.08 1.06 1.03 1.02 1.03 0.99 0.99 0.99 0.99 1.01 1.03 1.04 1.04 1.05 1.04 1.02 0.99 0.98 0.97 0.97 0.95 0.93 0.92 0.91 0.90 0.89 0.89 0.87 0.85 0.83 0.81 0.80 0.78 0.76 0.74 0.70 0.67 0.65 0.63 0.63 0.65 0.65 0.64 0.64 0.63 0.63 0.63 0.59
0.60 0.59 0.59 0.58 0.59 0.61 0.64 0.67 0.68 0.70 0.70 0.71 0.70 0.70 0.71 0.71 0.72 0.72 0.71 0.71 0.72 0.74 0.79 0.85 0.89 0.91 0.95 1.02 1.04 1.05 1.06 1.07 1.07 1.07 1.06 1.06 1.06 1.06 1.06 1.04 1.04 1.02 1.01 0.98 0.98 0.97 0.98 0.98 1.00 1.01 1.02 1.01 1.00 0.98 0.95 0.93 0.91 0.90 0.90 0.89 0.87 0.84 0.82 0.80 0.79 0.77 0.75 0.73 0.70 0.65 0.63 0.60 0.58 0.59 0.60 0.61 0.63 0.63 0.62 0.62 0.62 0.61 0.60 0.59 0.58
0.58 0.58 0.58 0.57 0.57 0.58 0.59 0.62 0.65 0.68 0.69 0.71 0.71 0.71 0.71 0.71 0.72 0.72 0.72 0.73 0.74 0.75 0.80 0.84 0.86 0.89 0.92 0.95 0.97 0.99 1.02 1.03 1.03 1.03 1.03 1.03 1.04 1.04 1.04 1.03 1.04 1.02 1.01 0.98 0.98 0.97 0.96 0.95 0.95 0.95 0.97 0.97 0.96 0.95 0.92 0.89 0.86 0.86 0.85 0.83 0.81 0.80 0.78 0.74 0.70 0.67 0.65 0.62 0.59 0.58 0.58 0.60 0.60 0.59 0.59 0.59 0.59 0.59 0.59 0.60 0.60 0.59 0.57 0.55 0.53
0.53 0.54 0.55 0.55 0.56 0.57 0.58 0.58 0.59 0.62 0.65 0.68 0.68 0.69 0.69 0.70 0.69 0.71 0.71 0.71 0.73 0.74 0.78 0.84 0.84 0.84 0.84 0.86 0.89 0.92 0.95 0.97 0.98 0.99 0.99 1.00 1.00 1.00 1.00 1.00 0.99 1.00 0.98 0.96 0.95 0.95 0.94 0.94 0.94 0.93 0.93 0.92 0.92 0.92 0.90 0.89 0.88 0.87 0.86 0.85 0.82 0.79 0.75 0.70 0.66 0.63 0.60 0.58 0.58 0.59 0.60 0.61 0.61 0.61 0.62 0.61 0.61 0.61 0.59 0.57 0.56 0.54 0.52 0.49 0.47
0.48 0.50 0.51 0.53 0.54 0.55 0.55 0.56 0.58 0.59 0.60 0.62 0.64 0.66 0.66 0.67 0.67 0.68 0.69 0.69 0.69 0.71 0.74 0.78 0.81 0.82 0.82 0.83 0.85 0.87 0.90 0.92 0.92 0.94 0.95 0.96 0.96 0.96 0.97 0.96 0.95 0.95 0.95 0.93 0.93 0.93 0.92 0.91 0.90 0.90 0.90 0.90 0.89 0.87 0.86 0.87 0.87 0.84 0.82 0.80 0.78 0.75 0.73 0.70 0.67 0.64 0.61 0.61 0.61 0.60 0.60 0.61 0.61 0.62 0.62 0.61 0.56 0.53 0.51 0.48 0.47 0.45 0.47 0.46 0.44
0.45 0.46 0.47 0.49 0.50 0.52 0.52 0.53 0.55 0.57 0.58 0.59 0.60 0.62 0.63 0.63 0.64 0.64 0.65 0.66 0.66 0.67 0.70 0.74 0.77 0.80 0.81 0.81 0.83 0.85 0.87 0.88 0.89 0.90 0.91 0.92 0.92 0.93 0.93 0.92 0.92 0.92 0.91 0.91 0.90 0.90 0.89 0.88 0.87 0.87 0.87 0.86 0.85 0.84 0.84 0.85 0.83 0.81 0.79 0.78 0.76 0.75 0.74 0.72 0.69 0.66 0.63 0.61 0.59 0.58 0.58 0.59 0.60 0.59 0.56 0.53 0.50 0.49 0.49 0.47 0.44 0.42 0.43 0.43 0.41
0.40 0.41 0.43 0.45 0.46 0.48 0.48 0.50 0.52 0.54 0.56 0.58 0.58 0.59 0.61 0.62 0.61 0.61 0.62 0.63 0.63 0.63 0.66 0.69 0.72 0.76 0.78 0.80 0.80 0.81 0.83 0.84 0.86 0.87 0.89 0.90 0.90 0.90 0.90 0.90 0.89 0.88 0.88 0.88 0.89 0.89 0.88 0.88 0.87 0.86 0.86 0.84 0.83 0.82 0.80 0.80 0.79 0.78 0.77 0.75 0.74 0.73 0.72 0.70 0.69 0.67 0.64 0.62 0.59 0.58 0.57 0.57 0.55 0.54 0.53 0.51 0.49 0.49 0.49 0.45 0.42 0.40 0.40 0.39 0.35
0.35 0.36 0.39 0.41 0.42 0.45 0.46 0.47 0.49 0.51 0.53 0.56 0.58 0.59 0.59 0.59 0.60 0.61 0.64 0.65 0.64 0.63 0.63 0.65 0.69 0.73 0.76 0.77 0.77 0.77 0.78 0.80 0.82 0.86 0.87 0.88 0.87 0.87 0.86 0.86 0.87 0.87 0.88 0.88 0.87 0.87 0.86 0.83 0.81 0.81 0.80 0.79 0.79 0.79 0.79 0.79 0.79 0.79 0.77 0.75 0.74 0.73 0.71 0.69 0.65 0.63 0.63 0.61 0.59 0.59 0.58 0.57 0.55 0.54 0.51 0.48 0.47 0.46 0.46 0.43 0.42 0.39 0.38 0.38 0.34
0.32 0.32 0.34 0.36 0.38 0.40 0.42 0.44 0.46 0.48 0.50 0.51 0.54 0.57 0.61 0.61 0.61 0.60 0.60 0.63 0.64 0.65 0.65 0.64 0.67 0.69 0.69 0.73 0.76 0.75 0.76 0.79 0.83 0.84 0.84 0.84 0.85 0.85 0.85 0.85 0.85 0.85 0.85 0.85 0.84 0.81 0.79 0.78 0.78 0.77 0.77 0.77 0.76 0.76 0.76 0.76 0.76 0.76 0.76 0.75 0.74 0.73 0.70 0.68 0.66 0.64 0.62 0.60 0.58 0.56 0.54 0.52 0.50 0.48 0.46 0.44 0.43 0.42 0.42 0.41 0.39 0.40 0.38 0.36 0.34
0.32 0.31 0.31 0.32 0.34 0.36 0.37 0.39 0.42 0.45 0.47 0.49 0.51 0.52 0.54 0.58 0.60 0.61 0.61 0.61 0.62 0.62 0.63 0.64 0.66 0.67 0.68 0.67 0.71 0.74 0.76 0.77 0.78 0.80 0.80 0.81 0.81 0.81 0.82 0.82 0.82 0.82 0.82 0.80 0.77 0.75 0.74 0.73 0.73 0.74 0.74 0.74 0.73 0.73 0.73 0.72 0.71 0.70 0.70 0.70 0.70 0.69 0.67 0.65 0.63 0.62 0.59 0.57 0.55 0.53 0.52 0.49 0.46 0.45 0.43 0.41 0.40 0.40 0.40 0.40 0.40 0.39 0.36 0.35 0.32
0.32 0.31 0.31 0.32 0.33 0.33 0.34 0.34 0.36 0.39 0.43 0.46 0.47 0.49 0.50 0.50 0.53 0.58 0.59 0.59 0.60 0.60 0.61 0.62 0.63 0.65 0.66 0.68 0.68 0.70 0.72 0.73 0.75 0.76 0.77 0.77 0.77 0.77 0.77 0.78 0.78 0.78 0.77 0.78 0.73 0.72 0.72 0.71 0.70 0.70 0.71 0.69 0.69 0.70 0.69 0.68 0.68 0.67 0.66 0.64 0.63 0.63 0.62 0.60 0.60 0.58 0.56 0.54 0.51 0.49 0.47 0.45 0.43 0.42 0.40 0.39 0.38 0.38 0.37 0.36 0.36 0.34 0.34 0.34 0.33
0.34 0.33 0.32 0.31 0.33 0.33 0.33 0.32 0.32 0.33 0.35 0.39 0.43 0.45 0.46 0.47 0.47 0.49 0.55 0.58 0.59 0.59 0.59 0.60 0.61 0.62 0.64 0.66 0.68 0.68 0.69 0.70 0.71 0.72 0.73 0.74 0.74 0.75 0.75 0.75 0.75 0.75 0.75 0.72 0.69 0.67 0.68 0.68 0.67 0.67 0.67 0.66 0.66 0.66 0.66 0.65 0.64 0.63 0.62 0.60 0.59 0.59 0.58 0.58 0.57 0.54 0.52 0.50 0.48 0.45 0.44 0.42 0.41 0.39 0.38 0.37 0.36 0.34 0.34 0.33 0.34 0.33 0.33 0.31 0.31
0.35 0.35 0.33 0.31 0.33 0.33 0.33 0.32 0.31 0.31 0.32 0.33 0.36 0.39 0.42 0.45 0.46 0.47 0.48 0.51 0.53 0.56 0.58 0.59 0.59 0.61 0.62 0.63 0.65 0.67 0.68 0.68 0.69 0.69 0.70 0.70 0.71 0.71 0.70 0.70 0.70 0.71 0.69 0.66 0.66 0.64 0.64 0.63 0.64 0.63 0.63 0.63 0.63 0.63 0.62 0.61 0.60 0.59 0.58 0.57 0.56 0.55 0.54 0.54 0.51 0.49 0.48 0.47 0.44 0.43 0.42 0.40 0.39 0.37 0.35 0.35 0.34 0.34 0.32 0.32 0.32 0.31 0.30 0.30 0.29
0.36 0.36 0.34 0.32 0.33 0.33 0.34 0.33 0.32 0.32 0.32 0.32 0.33 0.34 0.37 0.41 0.43 0.45 0.45 0.46 0.48 0.49 0.51 0.55 0.58 0.59 0.59 0.61 0.63 0.64 0.65 0.66 0.67 0.68 0.68 0.69 0.68 0.67 0.66 0.64 0.61 0.61 0.62 0.62 0.62 0.61 0.60 0.59 0.59 0.59 0.59 0.59 0.59 0.59 0.58 0.57 0.56 0.55 0.54 0.53 0.52 0.51 0.50 0.49 0.47 0.47 0.45 0.44 0.42 0.40 0.39 0.37 0.36 0.36 0.34 0.33 0.32 0.31 0.31 0.31 0.31 0.31 0.30 0.30 0.30
0.35 0.35 0.35 0.34 0.34 0.35 0.34 0.34 0.34 0.33 0.32 0.32 0.33 0.33 0.34 0.36 0.38 0.41 0.43 0.45 0.47 0.47 0.50 0.53 0.55 0.58 0.59 0.60 0.61 0.63 0.63 0.64 0.64 0.65 0.65 0.64 0.64 0.62 0.58 0.56 0.56 0.57 0.57 0.58 0.58 0.58 0.58 0.57 0.56 0.56 0.56 0.56 0.56 0.55 0.55 0.54 0.54 0.53 0.52 0.51 0.49 0.48 0.47 0.45 0.44 0.43 0.42 0.40 0.39 0.38 0.37 0.36 0.35 0.34 0.34 0.33 0.32 0.31 0.31 0.31 0.31 0.31 0.31 0.31 0.32
0.34 0.34 0.36 0.36 0.35 0.35 0.36 0.36 0.36 0.34 0.33 0.33 0.33 0.33 0.33 0.35 0.36 0.37 0.39 0.41 0.43 0.46 0.47 0.50 0.52 0.54 0.57 0.59 0.60 0.60 0.62 0.62 0.62 0.61 0.61 0.62 0.62 0.60 0.58 0.56 0.54 0.54 0.54 0.54 0.55 0.55 0.54 0.54 0.55 0.55 0.55 0.54 0.53 0.53 0.53 0.52 0.51 0.50 0.50 0.49 0.47 0.45 0.44 0.43 0.42 0.40 0.38 0.37 0.37 0.36 0.35 0.34 0.33 0.33 0.32 0.30 0.30 0.31 0.30 0.30 0.31 0.31 0.31 0.31 0.31
0.35 0.35 0.35 0.37 0.37 0.37 0.36 0.36 0.37 0.36 0.35 0.34 0.34 0.34 0.33 0.33 0.34 0.35 0.36 0.38 0.40 0.42 0.43 0.45 0.47 0.48 0.49 0.52 0.57 0.58 0.59 0.59 0.58 0.57 0.57 0.57 0.56 0.56 0.55 0.55 0.55 0.53 0.52 0.53 0.52 0.52 0.52 0.53 0.54 0.53 0.53 0.53 0.52 0.51 0.50 0.49 0.49 0.48 0.46 0.46 0.44 0.43 0.42 0.40 0.38 0.37 0.36 0.35 0.35 0.34 0.33 0.32 0.32 0.31 0.31 0.29 0.29 0.30 0.30 0.30 0.30 0.30 0.30 0.30 0.30
0.34 0.35 0.36 0.36 0.37 0.38 0.38 0.37 0.37 0.37 0.36 0.35 0.35 0.34 0.33 0.33 0.34 0.35 0.35 0.36 0.38 0.40 0.41 0.41 0.43 0.44 0.47 0.52 0.52 0.56 0.54 0.52 0.50 0.49 0.50 0.51 0.52 0.53 0.53 0.52 0.52 0.51 0.52 0.51 0.51 0.51 0.51 0.51 0.52 0.52 0.51 0.51 0.50 0.49 0.48 0.47 0.47 0.45 0.45 0.43 0.42 0.40 0.38 0.37 0.36 0.35 0.34 0.33 0.33 0.33 0.32 0.32 0.31 0.31 0.31 0.30 0.29 0.29 0.29 0.29 0.29 0.29 0.28 0.28 0.30
0.34 0.34 0.35 0.36 0.36 0.37 0.39 0.38 0.38 0.38 0.36 0.35 0.35 0.35 0.35 0.34 0.34 0.34 0.35 0.35 0.36 0.37 0.37 0.38 0.39 0.42 0.46 0.49 0.50 0.51 0.48 0.46 0.46 0.46 0.47 0.47 0.48 0.50 0.50 0.50 0.50 0.49 0.49 0.49 0.49 0.49 0.49 0.49 0.50 0.49 0.49 0.49 0.48 0.47 0.47 0.46 0.45 0.44 0.42 0.40 0.38 0.37 0.36 0.35 0.34 0.33 0.32 0.32 0.32 0.32 0.32 0.31 0.31 0.31 0.30 0.30 0.29 0.29 0.29 0.29 0.29 0.29 0.30 0.30 0.31
0.33 0.34 0.34 0.35 0.35 0.36 0.37 0.38 0.38 0.38 0.37 0.36 0.36 0.36 0.35 0.35 0.35 0.35 0.34 0.34 0.34 0.35 0.36 0.36 0.37 0.41 0.44 0.45 0.46 0.46 0.44 0.43 0.43 0.44 0.45 0.46 0.47 0.47 0.48 0.48 0.48 0.48 0.48 0.48 0.47 0.46 0.46 0.46 0.47 0.47 0.47 0.47 0.47 0.46 0.45 0.44 0.43 0.41 0.40 0.38 0.37 0.36 0.35 0.34 0.33 0.32 0.32 0.31 0.32 0.31 0.31 0.31 0.31 0.30 0.28 0.28 0.28 0.30 0.30 0.30 0.30 0.31 0.32 0.32 0.32
0.32 0.32 0.33 0.33 0.35 0.35 0.36 0.36 0.37 0.38 0.38 0.37 0.37 0.37 0.37 0.36 0.36 0.36 0.35 0.34 0.33 0.34 0.35 0.36 0.37 0.40 0.43 0.43 0.43 0.43 0.42 0.42 0.42 0.42 0.43 0.45 0.45 0.46 0.47 0.48 0.48 0.47 0.47 0.46 0.46 0.45 0.45 0.45 0.45 0.45 0.45 0.44 0.44 0.43 0.43 0.41 0.40 0.38 0.37 0.36 0.35 0.33 0.32 0.31 0.31 0.31 0.31 0.31 0.30 0.30 0.30 0.30 0.29 0.28 0.28 0.29 0.30 0.30 0.30 0.30 0.31 0.31 0.31 0.32 0.32
0.30 0.29 0.29 0.30 0.31 0.31 0.33 0.35 0.37 0.38 0.37 0.37 0.38 0.38 0.38 0.38 0.37 0.36 0.36 0.35 0.34 0.34 0.35 0.36 0.38 0.41 0.43 0.43 0.42 0.42 0.40 0.40 0.40 0.40 0.42 0.43 0.44 0.45 0.46 0.47 0.47 0.47 0.47 0.47 0.47 0.47 0.46 0.45 0.45 0.44 0.44 0.43 0.43 0.41 0.40 0.39 0.38 0.36 0.35 0.34 0.33 0.32 0.31 0.30 0.30 0.30 0.30 0.31 0.30 0.30 0.30 0.29 0.29 0.29 0.29 0.30 0.30 0.30 0.29 0.29 0.30 0.30 0.30 0.30 0.30
0.24 0.25 0.28 0.29 0.29 0.30 0.31 0.32 0.35 0.36 0.36 0.36 0.37 0.37 0.38 0.37 0.36 0.36 0.35 0.34 0.34 0.35 0.36 0.37 0.39 0.40 0.40 0.40 0.39 0.38 0.38 0.38 0.39 0.40 0.42 0.42 0.43 0.43 0.45 0.46 0.46 0.47 0.46 0.46 0.47 0.47 0.46 0.45 0.44 0.44 0.44 0.44 0.43 0.42 0.40 0.39 0.38 0.36 0.35 0.33 0.32 0.31 0.30 0.30 0.29 0.29 0.30 0.30 0.31 0.30 0.30 0.30 0.30 0.30 0.30 0.30 0.30 0.30 0.30 0.29 0.29 0.28 0.29 0.29 0.30
0.24 0.23 0.25 0.28 0.26 0.26 0.28 0.31 0.33 0.35 0.36 0.37 0.36 0.36 0.37 0.37 0.36 0.36 0.36 0.35 0.35 0.35 0.36 0.37 0.38 0.38 0.38 0.38 0.37 0.36 0.36 0.38 0.40 0.40 0.40 0.41 0.42 0.43 0.44 0.45 0.46 0.46 0.46 0.46 0.47 0.47 0.46 0.45 0.44 0.43 0.43 0.43 0.42 0.41 0.40 0.39 0.38 0.36 0.35 0.33 0.32 0.31 0.30 0.30 0.30 0.31 0.31 0.31 0.31 0.31 0.31 0.31 0.31 0.30 0.30 0.30 0.30 0.30 0.29 0.29 0.28 0.28 0.28 0.29 0.30
0.26 0.24 0.22 0.23 0.25 0.24 0.28 0.32 0.34 0.35 0.35 0.36 0.35 0.35 0.36 0.37 0.37 0.36 0.35 0.36 0.37 0.36 0.36 0.38 0.38 0.38 0.38 0.37 0.36 0.36 0.37 0.39 0.41 0.42 0.42 0.42 0.43 0.44 0.45 0.45 0.46 0.46 0.46 0.46 0.46 0.46 0.45 0.45 0.44 0.43 0.42 0.42 0.41 0.40 0.39 0.39 0.38 0.37 0.35 0.34 0.33 0.33 0.33 0.32 0.32 0.31 0.31 0.32 0.32 0.32 0.32 0.31 0.31 0.31 0.31 0.31 0.31 0.30 0.29 0.29 0.29 0.28 0.28 0.28 0.29
0.28 0.25 0.23 0.21 0.20 0.21 0.27 0.32 0.33 0.33 0.34 0.33 0.34 0.35 0.35 0.36 0.37 0.36 0.36 0.37 0.38 0.39 0.39 0.38 0.36 0.37 0.39 0.39 0.37 0.37 0.37 0.39 0.41 0.42 0.42 0.43 0.43 0.44 0.45 0.45 0.45 0.46 0.46 0.46 0.47 0.46 0.46 0.45 0.43 0.43 0.42 0.41 0.40 0.39 0.38 0.37 0.37 0.36 0.35 0.34 0.34 0.34 0.33 0.32 0.32 0.32 0.32 0.33 0.33 0.32 0.32 0.31 0.31 0.31 0.31 0.31 0.31 0.30 0.29 0.29 0.29 0.28 0.28 0.28 0.28
0.29 0.27 0.25 0.21 0.19 0.20 0.23 0.28 0.30 0.32 0.34 0.34 0.33 0.33 0.34 0.35 0.36 0.37 0.38 0.39 0.39 0.39 0.39 0.39 0.38 0.38 0.38 0.38 0.38 0.38 0.38 0.39 0.41 0.43 0.43 0.43 0.44 0.44 0.45 0.45 0.45 0.46 0.46 0.46 0.47 0.46 0.45 0.44 0.43 0.42 0.39 0.35 0.33 0.33 0.33 0.34 0.33 0.33 0.33 0.33 0.33 0.33 0.32 0.31 0.32 0.33 0.34 0.33 0.33 0.33 0.32 0.31 0.31 0.31 0.31 0.31 0.30 0.30 0.28 0.27 0.28 0.28 0.29 0.28 0.27
0.30 0.29 0.27 0.22 0.19 0.18 0.19 0.22 0.25 0.28 0.29 0.31 0.32 0.33 0.34 0.34 0.34 0.36 0.38 0.40 0.40 0.40 0.39 0.40 0.40 0.40 0.39 0.37 0.37 0.38 0.39 0.39 0.39 0.41 0.43 0.43 0.44 0.44 0.45 0.45 0.45 0.46 0.46 0.45 0.45 0.44 0.43 0.42 0.38 0.35 0.34 0.33 0.32 0.31 0.30 0.29 0.29 0.30 0.30 0.31 0.31 0.31 0.30 0.30 0.31 0.33 0.34 0.34 0.33 0.33 0.33 0.32 0.31 0.31 0.31 0.30 0.30 0.29 0.28 0.27 0.26 0.27 0.28 0.29 0.27
0.31 0.30 0.28 0.24 0.21 0.18 0.18 0.20 0.23 0.25 0.27 0.28 0.29 0.30 0.32 0.33 0.34 0.35 0.36 0.39 0.40 0.40 0.40 0.40 0.40 0.40 0.39 0.38 0.37 0.38 0.39 0.39 0.38 0.39 0.41 0.43 0.44 0.45 0.45 0.45 0.45 0.45 0.44 0.43 0.43 0.41 0.39 0.37 0.36 0.36 0.35 0.34 0.33 0.31 0.30 0.30 0.29 0.29 0.28 0.28 0.28 0.28 0.29 0.29 0.30 0.31 0.33 0.34 0.34 0.34 0.33 0.32 0.32 0.31 0.30 0.29 0.28 0.27 0.27 0.27 0.27 0.26 0.26 0.28 0.27
0.30 0.28 0.26 0.24 0.22 0.21 0.20 0.20 0.21 0.24 0.25 0.26 0.28 0.29 0.29 0.31 0.34 0.36 0.37 0.38 0.39 0.40 0.40 0.40 0.40 0.41 0.40 0.38 0.35 0.37 0.40 0.40 0.39 0.39 0.39 0.42 0.43 0.43 0.43 0.42 0.41 0.41 0.41 0.40 0.39 0.39 0.38 0.38 0.37 0.36 0.35 0.33 0.33 0.32 0.32 0.31 0.30 0.29 0.28 0.27 0.27 0.27 0.27 0.28 0.29 0.30 0.31 0.32 0.33 0.33 0.33 0.32 0.31 0.30 0.29 0.28 0.27 0.26 0.26 0.27 0.27 0.26 0.26 0.26 0.26
Wind_Speed
15 15 16 16 17 17 17 17 17 18 19 19 20 20 21 21 21 20 19 19 19 19 19 19 20 21 21 22 23 24 24 24 24 24 24 24 24 23 23 23 22 21 20 20 20 20 20 19 19 18 18 18 17 17 17 18 18 17 17 17 17 16 16 16 15 14 14 13 14 15 15 15 14 14 14 14 14 14 14 14 14 14 14 14 13
15 15 16 16 17 17 17 17 16 17 18 19 19 20 21 21 21 21 20 20 19 19 19 20 20 21 21 22 24 25 25 24 25 25 25 25 24 24 23 23 23 22 21 21 21 21 20 19 19 18 18 18 18 17 18 18 18 18 18 17 17 17 16 16 15 15 14 14 14 15 15 15 15 15 15 14 14 14 15 15 14 14 15 14 14
15 15 16 17 17 17 17 16 16 16 16 18 19 20 21 21 21 21 21 20 20 20 19 20 20 21 22 23 24 25 25 25 26 26 26 25 24 24 24 23 23 22 22 22 21 21 21 20 19 19 18 18 18 18 18 18 18 18 18 18 17 17 17 16 16 16 15 14 15 15 16 16 15 15 15 15 15 15 15 15 15 15 15 15 15
15 16 16 17 17 17 17 16 16 16 16 17 18 19 20 21 21 21 21 21 20 20 20 20 20 21 22 23 24 25 26 26 26 26 26 25 25 24 24 23 23 23 23 22 22 21 21 20 20 19 19 19 18 18 18 18 19 19 18 18 18 17 17 17 17 16 16 15 15 15 16 16 15 15 15 15 15 16 16 16 16 16 16 16 16
16 16 16 17 17 17 17 16 16 16 16 16 18 19 19 20 20 21 21 21 21 20 20 20 20 21 22 23 24 25 25 26 27 26 26 26 25 24 24 24 23 23 23 22 22 22 22 21 21 20 20 19 19 19 18 19 19 19 19 19 18 18 17 18 17 17 16 16 15 16 16 16 16 16 16 16 16 16 17 17 17 17 17 17 17
16 16 16 16 16 16 16 16 15 15 15 16 16 17 18 19 20 20 20 20 21 21 20 20 21 22 22 23 24 25 25 26 27 27 27 26 25 25 24 24 23 23 23 22 22 22 22 22 21 21 20 20 20 19 19 19 19 19 19 19 19 18 18 18 18 18 17 17 16 16 16 16 16 16 16 17 17 17 16 17 17 18 18 18 18
16 16 16 16 16 16 16 15 15 15 15 15 15 16 17 19 19 20 20 20 21 21 21 21 21 22 22 23 24 25 25 26 27 27 27 27 26 25 24 24 23 23 22 22 22 22 22 22 21 21 21 20 20 20 19 19 19 19 20 19 19 19 19 19 19 18 18 18 17 17 17 17 17 16 17 17 17 17 17 17 17 18 18 19 19
17 17 17 16 16 16 16 16 16 15 15 15 15 16 17 18 19 20 20 21 21 21 21 22 22 22 22 23 24 25 25 26 26 27 27 27 27 25 24 24 24 23 22 22 22 22 21 21 21 21 21 20 20 20 20 20 19 19 20 20 20 20 19 19 19 19 19 19 19 18 17 17 17 17 17 17 17 17 18 18 17 17 18 19 19
17 17 17 17 17 17 17 16 16 15 15 14 15 15 17 18 19 20 21 22 22 22 22 22 22 22 23 23 24 25 26 26 27 27 27 27 27 26 25 24 24 23 22 22 22 22 22 21 21 20 20 20 20 20 20 20 19 19 20 20 20 20 20 20 20 20 20 20 20 19 19 18 18 18 18 18 18 18 18 18 17 17 17 18 18
17 17 17 18 18 18 18 17 17 17 16 15 15 16 16 17 19 20 21 22 22 23 23 23 23 23 23 23 24 25 26 26 27 27 27 27 27 27 25 24 24 23 23 22 22 22 21 21 20 20 20 19 20 20 20 20 20 20 20 20 20 20 20 20 20 20 21 21 21 20 20 20 19 19 19 19 19 18 18 18 18 17 17 17 18
17 17 18 18 18 19 18 18 18 18 17 16 16 16 16 17 18 19 21 22 22 23 23 23 24 24 24 24 25 25 26 26 27 28 28 27 27 27 26 25 24 24 23 23 22 22 21 21 20 20 20 20 20 20 20 20 20 20 20 20 20 20 20 20 20 21 21 21 21 20 21 22 21 20 20 19 19 19 19 18 18 17 17 17 18
18 18 18 18 19 19 19 19 19 19 18 18 17 17 17 17 17 18 19 21 22 22 22 23 24 25 24 24 25 25 26 26 28 29 28 27 27 27 27 26 25 24 24 23 23 22 21 21 20 20 20 19 19 19 20 19 19 20 19 19 20 20 20 20 20 21 21 21 20 19 21 23 23 22 21 21 21 20 19 19 18 18 18 19 19
18 18 19 19 19 19 19 19 19 19 19 19 19 18 18 18 18 18 19 20 21 21 22 23 24 25 25 25 25 25 25 26 29 30 28 27 27 27 27 27 25 24 24 23 23 22 22 21 20 20 20 19 20 20 20 20 20 20 20 20 20 20 20 20 21 21 21 21 21 20 21 22 23 23 22 22 21 21 20 19 19 19 20 20 20
18 19 19 19 19 19 20 20 20 20 20 20 19 19 19 19 19 19 19 19 20 20 22 23 23 24 25 26 25 25 25 26 28 29 29 28 27 27 27 27 26 25 24 24 23 23 22 22 21 20 20 20 20 20 20 20 20 20 20 21 21 21 20 20 21 21 21 21 21 21 21 22 22 22 22 22 22 21 21 21 21 21 21 21 21
19 19 19 20 20 20 20 21 21 21 21 20 20 19 19 19 19 19 19 19 20 20 21 22 23 24 25 26 25 25 25 26 27 28 28 28 28 27 27 27 27 26 25 24 24 23 23 22 22 21 20 20 20 20 20 20 20 20 20 20 20 20 20 20 21 21 21 21 21 21 21 21 21 21 21 22 22 22 21 22 22 21 21 21 21
19 19 20 20 20 21 21 21 21 21 21 20 20 20 19 19 19 19 19 19 19 20 21 22 23 24 24 25 26 25 24 25 27 27 27 28 28 28 28 28 27 26 26 25 24 24 23 22 22 21 20 20 20 20 20 20 20 19 19 19 19 19 19 19 19 19 20 20 19 20 20 19 19 19 20 21 21 21 21 21 21 21 21 22 22
19 20 20 20 21 21 21 21 21 21 21 20 20 20 19 19 18 18 18 19 19 19 20 21 22 23 24 25 25 25 24 25 26 27 27 27 28 28 28 28 27 27 26 25 25 24 23 23 22 22 21 20 20 19 20 20 19 19 18 18 18 18 18 18 17 17 17 17 17 17 17 17 17 17 18 19 20 20 21 21 21 22 22 22 23
19 20 20 21 21 21 21 21 21 20 20 20 19 19 18 18 18 18 18 18 18 18 19 19 20 21 23 24 24 24 24 25 25 26 27 27 28 28 28 27 27 27 26 25 25 24 23 23 23 22 22 21 20 20 20 20 19 19 18 18 18 17 17 18 17 16 16 16 16 17 17 16 17 17 18 18 19 20 21 21 22 22 23 23 23
20 20 20 21 20 20 19 19 20 19 19 19 18 18 17 17 17 17 16 16 16 16 17 17 18 19 21 23 24 24 24 25 25 25 26 26 27 28 28 28 27 26 26 26 25 25 24 24 23 23 22 21 21 20 20 20 20 20 19 19 19 18 18 18 17 17 17 17 17 17 17 18 18 18 18 18 19 19 20 21 22 22 23 23 24
19 19 20 20 19 19 18 18 18 18 18 17 17 16 16 16 15 15 14 14 13 13 13 14 15 16 18 20 22 23 24 24 24 24 25 25 26 27 28 28 27 26 26 26 25 25 25 24 24 23 22 22 21 21 21 21 21 21 20 20 19 19 19 19 18 18 18 18 18 18 18 18 19 19 19 19 19 20 21 21 22 23 23 24 25
18 18 18 19 19 19 18 17 17 17 17 17 16 15 15 15 15 14 13 13 11 10 10 11 13 14 15 17 20 21 22 23 22 23 24 24 25 26 26 26 26 26 26 25 25 25 24 24 24 23 23 22 22 21 21 21 21 21 21 20 20 20 20 19 19 19 19 19 19 19 19 19 20 20 20 20 20 21 21 22 23 23 24 24 25
18 18 18 18 18 18 18 18 17 16 17 17 16 16 15 15 15 14 13 12 11 9 8 8 9 10 12 15 17 19 20 21 21 22 23 23 24 24 24 23 24 25 24 24 24 24 23 23 23 23 22 22 22 22 22 21 21 21 21 21 21 21 21 20 20 20 20 20 20 20 20 20 20 20 20 21 21 21 22 22 23 24 24 24 25
18 18 18 18 18 18 18 18 17 17 17 17 17 16 16 15 15 14 13 12 10 9 7 7 7 8 10 12 15 16 17 18 20 21 21 22 23 23 22 22 22 23 23 23 22 22 22 22 22 21 21 21 21 21 21 21 21 21 21 21 22 22 22 22 21 21 21 21 21 21 21 21 21 21 21 21 22 22 22 23 23 23 24 24 25
19 19 19 19 19 18 18 18 17 17 17 17 16 15 15 15 15 14 13 12 10 8 7 6 5 6 8 10 13 15 16 16 17 19 20 21 22 22 22 22 22 22 22 21 21 21 21 21 21 20 20 20 20 21 21 21 21 21 21 22 22 23 23 22 22 22 22 21 21 21 21 21 21 21 22 22 22 22 22 23 23 23 23 23 24
19 19 19 19 19 19 19 18 17 17 16 16 16 15 15 14 14 13 12 11 10 9 8 8 7 6 7 8 11 13 15 15 16 17 19 20 21 21 20 20 20 20 20 19 19 19 18 18 18 18 19 20 20 21 21 21 21 21 21 22 23 23 23 23 23 22 22 22 22 22 22 22 21 22 22 22 22 22 22 22 22 22 23 23 24
19 19 20 19 19 19 19 18 17 17 16 16 15 15 15 14 14 13 11 11 10 9 9 9 10 9 8 8 9 11 13 15 15 17 19 19 20 19 18 18 17 18 18 18 17 16 16 17 17 18 18 19 20 21 21 21 21 21 22 22 23 23 23 24 23 23 23 22 22 22 22 22 22 22 22 21 21 21 21 22 22 22 23 23 24
19 19 19 19 19 19 19 18 18 17 16 15 15 15 14 14 13 13 12 11 10 9 9 9 10 10 10 10 9 10 11 13 14 16 17 18 19 19 18 18 18 18 18 18 17 17 17 17 18 18 19 20 20 21 21 22 22 22 22 22 23 23 23 23 23 23 22 22 22 22 22 22 21 21 21 20 20 21 21 22 22 23 23 24 24
19 19 19 19 19 19 19 18 18 17 16 15 15 14 14 14 13 13 12 11 10 10 9 9 9 9 10 10 10 10 10 12 13 15 16 18 19 19 19 20 19 19 19 19 19 19 19 19 19 20 21 21 22 22 22 23 22 21 21 22 22 22 22 22 23 23 23 23 23 22 22 21 20 20 20 20 20 21 21 22 22 22 23 23 24
19 19 20 19 19 19 19 18 18 17 17 16 15 15 14 14 14 13 13 12 11 10 10 9 9 9 10 10 10 10 11 12 13 15 16 17 18 19 19 20 20 20 20 21 21 21 21 21 21 21 21 21 22 22 22 22 21 21 21 22 22 22 23 23 23 24 23 23 22 21 20 19 19 19 19 20 20 21 21 21 22 22 22 23 23
19 19 19 19 19 19 19 18 18 17 17 16 16 15 15 14 14 13 13 13 12 11 10 10 10 10 10 10 11 11 11 12 13 13 14 15 16 17 18 19 20 20 20 21 21 21 21 21 21 21 21 21 21 21 22 21 21 21 21 21 22 22 23 24 24 23 22 21 20 19 19 18 18 19 19 20 20 20 20 20 21 21 22 23 24
19 19 19 19 18 18 18 18 18 17 17 17 16 16 15 15 14 14 14 13 13 12 11 10 10 10 10 10 11 11 11 12 12 12 12 13 14 15 16 17 18 19 20 21 21 22 22 21 22 22 22 22 22 23 23 23 23 23 23 23 24 24 24 24 23 22 20 19 19 18 18 18 18 19 19 19 19 19 19 20 21 22 23 24 25
19 19 19 18 18 18 17 17 17 17 17 17 17 17 16 15 15 14 14 14 13 12 12 12 11 11 11 11 11 11 11 12 12 12 12 13 14 15 15 16 17 18 19 19 20 21 22 22 22 22 22 23 23 23 23 23 23 23 23 23 23 23 22 21 20 19 18 17 17 17 17 18 18 18 18 18 18 19 19 20 22 23 23 24 25
18 19 19 18 18 17 17 17 17 16 17 17 17 17 17 16 16 15 15 15 14 13 12 12 12 12 12 12 12 12 12 12 12 12 12 13 14 14 15 16 17 17 18 19 19 19 20 21 21 22 22 22 22 22 22 22 22 22 22 21 20 19 18 17 17 16 16 16 16 16 16 16 16 16 17 17 18 19 20 21 22 23 24 24 24
18 18 18 18 17 17 16 16 16 16 16 16 17 17 17 17 17 16 16 16 15 14 14 13 13 13 13 13 13 12 12 13 13 12 13 13 13 14 15 15 16 16 17 18 18 18 18 18 19 20 20 20 20 20 20 20 20 19 18 17 16 16 16 15 15 15 15 15 15 15 15 16 16 17 18 18 19 20 21 21 22 23 23 23 24
18 18 18 17 16 16 16 16 16 16 16 16 16 17 17 17 17 17 17 16 16 16 15 15 14 14 14 14 14 14 13 13 13 13 13 13 14 14 15 15 15 15 15 15 16 16 16 16 17 17 18 18 18 17 17 17 17 16 15 15 15 15 15 14 14 14 14 14 14 15 15 16 17 17 18 19 19 20 20 21 22 22 22 23 23
18 18 17 17 16 15 15 15 15 15 15 16 16 16 17 17 17 17 17 17 17 17 16 16 15 15 15 15 15 15 15 14 14 13 13 14 14 15 15 15 14 14 14 14 14 14 14 14 15 15 16 16 15 15 15 14 14 14 14 14 14 14 14 14 14 14 14 14 14 15 15 16 17 17 18 18 19 20 20 20 21 21 22 23 23
18 18 18 17 16 16 15 15 15 15 15 15 15 16 16 16 17 17 17 17 17 17 17 17 17 17 16 16 16 16 16 16 16 15 15 15 15 15 15 14 14 13 13 13 13 13 13 13 13 14 14 14 14 14 13 13 13 13 13 13 13 13 14 14 14 14 14 14 15 15 16 16 17 17 18 18 19 19 20 20 20 21 21 22 23
19 18 18 18 17 16 16 15 15 14 14 14 14 15 15 16 16 17 17 18 18 18 18 18 18 18 18 18 18 17 17 17 17 17 17 17 16 16 15 15 14 14 14 13 13 13 13 13 13 13 14 14 14 14 13 13 13 13 12 13 13 13 14 14 14 14 15 15 15 16 16 16 17 17 18 18 18 19 19 20 20 20 21 22 22
19 19 19 19 19 18 17 16 15 14 14 14 14 14 14 15 15 16 16 17 18 18 18 18 18 19 19 19 19 19 19 18 18 18 18 18 17 16 16 16 15 15 14 14 14 14 14 14 14 14 14 14 14 14 13 13 13 13 13 13 13 14 14 14 14 15 15 15 16 16 16 16 17 17 17 18 18 18 19 19 20 20 21 22 22
19 19 19 20 19 19 18 17 16 15 14 14 14 14 14 14 14 14 15 16 17 18 18 18 19 19 19 19 19 19 19 19 19 18 18 18 18 17 17 17 16 15 15 15 15 14 14 14 14 14 14 14 14 14 14 14 14 14 14 14 14 14 14 14 15 15 15 15 15 16 16 16 17 17 17 17 18 18 19 19 20 21 21 22 22
20 20 20 20 20 20 19 18 16 16 15 14 14 14 14 14 14 13 14 15 16 17 18 19 19 20 20 19 19 20 20 19 19 19 19 19 19 18 18 18 17 16 16 16 15 15 15 15 15 15 15 15 15 15 14 14 14 14 14 14 14 13 14 14 14 14 15 15 15 15 16 16 16 17 17 17 18 18 19 20 20 21 21 22 22
21 21 21 21 20 20 19 18 17 16 15 15 14 14 14 14 14 13 14 14 15 16 16 17 19 20 20 20 20 20 20 20 20 20 20 20 19 19 18 18 18 17 17 17 16 16 15 15 15 15 15 15 15 15 15 15 15 14 14 14 14 14 14 14 14 14 14 14 15 15 15 16 16 17 17 18 19 19 20 20 20 20 20 21 21
22 22 21 21 21 21 20 19 18 17 16 16 15 14 14 14 14 14 14 14 14 15 15 15 16 18 19 19 20 20 20 20 21 20 20 20 19 19 19 19 18 17 17 17 17 17 17 17 16 16 16 16 16 16 16 16 15 15 15 15 14 14 14 14 14 14 15 15 15 15 16 16 17 17 18 18 19 19 19 19 19 20 20 20 20
23 23 22 21 21 21 21 20 19 18 17 16 16 15 15 15 15 14 14 14 14 14 14 14 15 15 16 17 18 19 19 20 20 20 20 19 19 19 20 20 19 18 17 17 17 17 17 17 17 17 17 17 16 16 16 16 16 16 15 15 15 15 15 15 15 15 16 16 16 16 17 17 17 18 18 18 18 18 18 18 19 19 19 19 19
23 23 23 22 22 22 22 21 19 18 18 17 16 15 15 15 15 15 14 13 13 13 13 13 14 14 15 16 16 17 17 18 19 18 18 19 19 19 19 20 20 19 18 17 17 17 17 17 17 17 17 17 17 17 16 16 16 16 16 15 15 15 15 15 15 16 16 17 17 17 17 18 18 18 18 18 18 18 18 18 18 18 18 18 18
23 24 24 23 22 22 22 21 19 19 19 18 17 16 15 15 15 15 14 13 13 13 13 13 13 14 14 15 15 15 16 17 17 17 17 18 18 18 18 18 18 18 18 18 17 17 17 17 17 17 17 17 17 17 17 17 16 16 16 16 16 16 16 16 16 16 17 17 17 17 17 17 17 17 17 17 17 17 17 17 17 17 17 17 17
23 24 24 23 23 22 21 20 20 20 20 19 17 16 16 15 15 14 14 13 13 13 13 13 13 13 14 13 13 13 14 15 16 16 16 16 17 17 17 17 17 17 18 17 17 17 17 17 17 17 17 17 17 17 17 17 17 16 16 16 16 16 16 16 16 16 16 17 17 17 17 17 17 17 17 17 17 17 17 17 16 16 16 16 16
23 23 24 24 23 22 21 21 20 20 20 19 18 17 16 16 15 14 14 13 13 13 13 13 13 12 13 13 13 12 13 13 14 14 15 15 16 17 17 17 17 17 17 17 17 17 17 17 16 16 16 16 16 16 16 16 16 16 16 16 16 16 16 16 16 16 16 16 16 16 16 16 16 16 16 16 16 16 16 16 16 16 15 15 15
23 23 24 24 24 23 22 21 21 21 21 20 19 18 17 16 16 14 14 13 13 13 13 13 13 12 12 12 12 12 12 12 12 13 13 14 14 15 16 16 17 17 17 17 17 16 16 16 16 15 15 15 15 15 15 15 15 15 15 15 15 15 15 15 15 15 15 15 15 15 16 15 15 15 15 15 15 15 15 15 15 15 14 14 13
23 24 24 25 24 23 22 21 21 21 21 20 20 19 18 17 16 15 14 13 13 12 12 12 13 12 12 11 11 11 11 11 11 11 12 13 13 14 14 15 15 16 16 16 16 16 15 15 15 15 15 14 14 14 14 13 13 13 13 14 14 14 14 14 14 14 14 14 14 14 14 14 14 14 14 14 14 14 14 14 14 14 13 13 12
23 24 24 25 24 24 23 22 21 21 21 21 20 19 18 17 16 15 14 13 12 12 12 12 12 12 11 11 10 10 10 10 10 10 11 11 12 12 13 13 14 14 15 15 15 15 15 15 15 14 14 14 13 13 13 12 12 12 12 12 12 13 13 13 13 13 13 13 13 13 13 13 13 13 13 13 13 13 13 13 13 12 12 12 11
Wind_Direction
305 303 301 300 300 300 300 296 285 273 264 258 256 254 253 252 252 253 253 252 253 253 250 245 240 237 236 234 231 230 230 229 227 226 225 224 224 224 224 225 226 226 227 227 227 228 229 231 233 234 235 237 238 239 240 240 241 242 243 244 244 244 244 244 248 249 249 250 245 238 237 237 235 235 236 238 238 238 238 239 238 239 240 242 242
307 305 303 302 302 300 299 298 293 282 269 260 256 254 252 251 250 251 252 252 253 252 250 247 242 237 236 235 232 230 230 229 227 226 224 224 224 224 225 225 226 226 227 228 228 229 230 231 233 234 236 237 238 239 240 240 240 241 242 243 243 243 242 243 246 247 247 248 244 237 236 236 236 235 236 239 240 239 240 240 241 241 243 244 246
310 308 306 304 303 301 299 298 296 289 277 266 260 257 253 251 249 249 251 252 251 251 251 249 244 239 237 236 235 232 230 229 228 225 223 222 223 224 224 225 225 226 227 228 229 230 230 232 233 234 236 237 238 239 239 239 239 240 241 241 241 242 242 242 244 245 246 246 243 238 236 235 237 237 238 240 241 241 241 242 242 242 244 245 247
314 312 309 308 306 303 301 299 296 291 283 273 267 262 257 252 250 250 252 252 251 251 250 248 245 241 239 237 236 233 230 229 227 224 222 221 222 223 224 225 226 227 228 229 230 231 231 232 234 235 236 238 239 239 239 238 238 239 240 240 240 241 242 242 243 244 244 244 242 239 237 237 238 240 240 242 242 243 243 243 242 243 245 247 249
318 317 315 313 311 309 305 301 297 293 287 279 272 267 260 254 251 251 252 251 250 250 249 247 245 242 240 238 236 233 230 228 225 223 221 221 223 224 225 226 227 229 230 231 232 233 233 234 235 236 237 238 239 239 239 238 238 239 239 239 240 240 241 241 242 243 242 242 241 240 239 239 240 242 243 243 244 244 245 244 244 246 247 249 252
322 321 320 318 317 315 312 307 302 297 291 284 276 269 261 255 253 252 253 252 251 250 249 247 245 243 241 238 235 232 230 228 225 223 222 222 224 225 226 227 229 230 231 232 233 234 235 236 236 237 238 239 239 239 239 238 238 238 238 239 240 240 240 241 242 242 242 242 241 240 240 241 242 244 245 245 246 246 245 246 248 249 250 252 254
324 324 324 323 321 320 317 313 309 303 297 290 283 274 264 258 255 254 254 253 252 252 251 249 246 244 241 238 234 231 230 228 226 224 224 224 224 226 227 228 229 231 232 233 233 234 235 236 236 237 238 239 239 239 238 238 238 239 239 239 240 240 241 241 242 242 242 242 241 241 241 242 244 246 247 247 247 247 247 248 250 252 253 254 255
323 324 324 324 323 321 319 316 313 308 302 296 289 281 272 264 260 258 256 255 253 252 251 250 247 244 241 238 234 231 230 229 226 225 225 225 225 226 227 229 230 232 233 233 232 234 235 236 236 237 238 239 239 239 238 238 239 239 240 240 240 241 242 243 243 243 242 241 241 241 242 243 245 247 247 246 246 247 247 249 252 255 256 257 257
319 321 322 324 323 321 319 317 315 310 305 301 295 288 280 271 265 262 259 257 255 252 251 250 248 244 241 238 235 232 231 230 227 225 225 225 225 226 228 230 230 231 231 231 231 233 234 236 237 237 237 238 238 238 238 238 239 240 240 240 241 241 243 244 243 243 242 241 241 241 241 243 245 246 246 245 245 247 249 251 254 257 259 260 260
316 318 319 321 322 322 320 318 316 312 307 302 298 294 287 279 272 266 263 260 258 255 252 250 247 245 241 238 235 233 232 231 227 225 225 225 225 226 228 229 229 230 230 230 230 232 234 235 236 236 236 237 237 236 236 237 239 240 241 240 241 241 242 243 244 243 242 241 242 242 242 243 245 245 245 245 245 248 251 252 255 258 260 262 262
315 316 318 318 319 321 321 319 317 314 309 303 300 298 293 287 280 273 267 263 260 257 253 250 246 243 241 238 235 234 233 230 226 224 224 225 226 227 227 228 229 230 230 230 231 232 233 234 235 235 235 236 236 236 237 238 239 240 241 241 241 242 242 243 244 244 243 242 243 243 242 243 245 246 246 246 246 249 251 253 256 258 260 261 263
314 316 317 317 318 319 321 321 320 318 313 307 302 299 297 292 287 281 274 267 262 258 256 252 247 243 240 238 236 235 234 229 225 224 224 225 226 227 226 227 229 230 230 230 231 232 233 233 233 234 235 235 235 236 237 238 239 240 241 241 242 243 244 245 245 244 243 243 243 243 242 242 244 246 247 248 248 248 251 254 256 258 260 262 264
314 315 317 317 318 318 319 320 320 320 318 313 306 301 298 295 291 287 280 273 266 260 257 255 250 245 241 238 236 236 234 229 225 224 225 225 226 226 226 227 228 229 229 230 230 231 231 231 232 233 234 234 235 236 237 238 238 239 239 240 241 242 244 246 246 246 245 244 244 243 244 244 245 246 247 247 247 248 251 255 257 259 261 263 265
313 315 316 317 317 317 317 318 318 319 319 317 312 306 300 296 293 290 285 279 271 264 259 255 251 246 242 238 236 235 233 229 225 224 226 226 225 225 225 226 227 228 229 229 229 230 230 231 231 233 234 235 237 237 237 238 238 239 240 240 241 243 244 245 246 246 245 245 245 245 245 246 247 248 245 244 246 250 254 257 258 260 262 264 266
311 313 314 316 317 317 316 316 316 317 317 317 316 313 306 300 296 293 289 283 276 268 261 255 251 247 241 237 235 234 233 228 225 224 225 225 224 225 226 226 226 227 228 228 228 229 230 230 231 232 234 236 237 237 237 238 238 239 240 240 241 243 244 246 246 245 245 245 246 247 247 247 247 246 244 244 248 253 256 258 259 261 263 265 268
309 310 311 313 315 315 315 315 315 316 316 316 317 316 312 307 301 296 292 287 280 271 263 256 251 247 242 236 233 233 232 228 225 224 224 224 224 225 226 225 225 226 227 227 228 229 229 230 231 232 234 235 237 237 237 237 237 238 238 239 240 241 243 245 245 243 243 243 244 245 246 246 245 244 244 246 249 253 255 258 259 261 264 267 270
310 310 310 311 312 313 313 314 314 315 315 316 317 316 314 311 308 302 296 290 283 275 265 257 251 246 241 236 232 231 231 228 225 224 224 224 224 226 226 225 224 225 225 226 227 228 230 231 232 232 233 235 237 237 237 237 237 236 236 236 237 238 239 240 240 239 238 237 238 239 241 244 245 246 247 249 251 254 257 259 261 263 266 269 271
311 310 310 311 312 312 312 312 313 314 315 316 316 316 314 311 309 306 300 292 285 277 267 258 251 245 239 234 232 231 229 226 225 225 225 225 225 225 224 224 224 225 226 226 227 228 230 233 234 233 233 234 236 236 237 237 235 234 233 232 233 233 234 235 235 235 235 235 236 238 240 244 247 250 253 254 256 257 258 261 264 266 268 270 272
310 310 311 312 312 312 312 313 313 313 314 315 314 314 313 310 308 306 301 293 287 279 270 259 250 245 239 234 231 229 226 225 225 225 225 225 225 225 224 224 224 224 225 226 227 228 230 233 235 234 233 233 234 236 237 237 236 235 235 234 232 232 233 234 234 236 237 238 240 242 244 246 249 252 256 259 260 260 261 263 266 268 270 272 274
311 311 312 313 313 312 313 314 314 314 314 315 315 313 311 310 311 310 305 297 290 281 270 258 247 243 240 233 228 225 224 224 225 225 225 225 224 224 225 224 223 223 224 225 226 228 230 231 232 233 233 233 235 237 239 240 239 237 237 236 234 233 234 235 237 239 240 241 243 245 247 249 251 253 256 259 261 263 265 267 269 270 272 274 276
311 313 313 313 314 314 313 314 315 315 314 315 316 316 314 313 314 314 311 307 300 289 276 261 248 242 239 231 224 223 224 226 226 226 225 223 223 224 224 224 223 222 224 225 227 229 230 231 231 233 234 235 236 238 240 241 240 239 238 237 235 233 234 235 238 240 243 244 246 247 249 251 253 255 258 260 263 265 268 270 272 273 275 276 277
310 312 314 315 316 315 314 313 313 312 312 313 313 313 313 314 316 317 316 316 314 306 291 271 251 241 235 226 220 221 224 225 224 224 224 221 220 222 223 222 223 223 224 226 227 229 230 230 231 233 234 235 238 239 239 240 240 240 239 238 236 235 235 237 239 242 245 247 248 250 252 253 255 257 259 262 265 267 270 272 274 275 276 277 278
307 309 312 315 316 316 315 315 313 311 310 311 311 310 309 309 311 314 315 316 316 310 299 282 257 237 228 224 221 220 223 225 224 224 223 219 218 220 221 221 223 225 225 226 226 227 227 228 230 232 233 235 238 239 239 239 239 240 239 238 237 238 238 239 242 244 247 248 249 250 252 254 256 258 261 263 266 269 271 272 274 275 276 278 280
307 307 309 311 313 314 314 314 313 312 311 310 310 310 309 307 307 307 308 308 307 300 289 284 274 249 234 233 232 227 227 228 226 222 220 217 217 219 221 221 222 224 225 225 224 225 226 228 230 232 234 236 237 238 239 240 240 239 240 240 240 240 241 242 244 246 248 249 250 251 253 254 256 259 262 265 267 269 271 272 274 275 277 280 282
307 307 308 308 309 310 311 311 311 311 310 309 308 307 308 307 305 305 305 304 302 294 278 272 275 268 250 243 240 234 229 228 224 219 216 214 214 216 219 220 221 222 222 222 223 224 226 229 232 235 238 239 240 240 240 240 239 239 241 242 242 242 243 244 246 248 249 250 251 252 253 255 257 260 263 265 267 269 271 273 275 277 279 281 283
306 306 307 306 306 307 307 307 308 308 308 308 306 305 305 304 302 302 302 300 299 294 281 269 266 265 258 253 251 240 229 225 222 219 217 216 215 215 216 217 219 219 218 218 222 226 230 234 237 239 242 244 244 244 243 242 240 241 243 244 243 244 244 245 246 248 249 250 251 252 253 256 258 260 262 265 267 270 273 275 276 278 279 281 284
303 304 304 304 304 304 304 304 304 304 304 305 304 303 303 303 302 300 298 296 294 291 284 274 267 263 259 258 256 244 229 224 223 222 222 222 221 220 220 221 223 222 221 223 228 233 238 242 243 243 245 246 245 245 245 245 244 244 244 244 244 245 246 246 247 249 249 250 251 252 253 255 257 260 263 266 269 272 274 276 277 279 280 282 285
303 302 302 302 302 302 301 301 300 300 300 300 300 300 300 299 298 297 295 293 290 286 281 276 271 267 261 257 253 244 235 231 231 230 230 229 228 228 228 230 232 233 233 234 238 240 243 245 246 246 246 246 245 245 244 244 244 244 244 245 246 247 248 249 250 250 250 251 251 252 252 254 257 260 264 268 270 272 274 276 278 280 282 284 287
305 303 301 300 300 300 299 298 297 297 296 295 295 296 296 295 293 292 291 290 288 284 279 274 271 267 262 256 252 247 242 240 238 236 234 234 233 232 233 234 236 237 239 241 242 243 244 245 245 246 245 244 244 243 241 241 241 241 243 245 247 249 252 254 254 253 252 252 251 251 252 254 258 262 265 268 269 271 274 277 279 282 285 287 289
309 306 303 300 299 298 296 295 294 293 292 291 290 290 291 292 291 290 289 287 287 285 280 275 272 268 263 258 255 251 246 245 243 239 236 235 234 233 233 235 236 239 242 245 246 246 246 246 245 245 244 243 243 241 240 240 241 242 243 245 248 251 254 254 254 252 251 250 250 251 253 255 258 261 263 265 268 272 276 280 283 285 287 289 290
312 310 307 303 300 299 296 294 292 289 288 287 286 284 285 286 287 287 286 285 285 285 281 276 273 270 267 262 260 257 255 252 249 246 241 238 237 236 237 239 241 244 247 250 250 249 248 246 245 245 244 244 243 243 242 242 243 243 245 248 250 251 252 251 249 249 247 246 247 249 252 254 256 258 262 267 272 276 280 284 286 287 288 289 290
315 313 310 306 304 302 300 298 294 290 287 286 284 283 281 280 279 280 281 281 282 283 281 278 274 271 269 265 260 259 259 257 254 251 248 245 244 243 244 246 248 250 252 252 252 251 250 248 246 245 245 244 244 243 242 241 241 242 245 248 248 248 246 244 243 243 243 243 245 247 250 252 256 261 267 272 275 278 281 284 286 287 288 290 291
320 317 314 310 306 304 303 303 300 295 290 287 285 283 281 279 277 276 276 275 275 276 277 276 273 270 268 265 261 257 256 256 255 253 251 249 248 248 250 251 253 254 254 253 251 250 248 247 246 244 243 242 241 240 240 239 239 240 243 245 243 240 238 237 237 239 241 243 245 247 250 255 260 265 269 272 275 278 281 284 286 288 290 292 293
326 323 320 315 310 306 304 304 303 300 296 291 287 284 282 280 278 276 274 273 272 271 272 272 271 267 264 263 261 258 255 255 256 255 253 252 251 251 253 254 255 256 256 254 251 248 246 245 244 242 241 239 238 238 238 237 238 239 240 240 237 233 232 234 237 239 241 244 246 249 253 258 262 265 268 272 276 280 283 286 288 291 293 294 296
331 329 327 323 317 311 307 305 304 302 300 296 292 287 283 281 279 276 274 273 272 271 270 270 269 265 261 259 259 258 256 254 254 255 255 255 255 255 255 256 256 256 255 254 252 250 247 245 243 241 238 236 235 235 235 235 236 236 234 233 231 230 233 236 238 240 242 245 249 253 257 261 264 268 271 276 280 283 286 289 291 294 296 297 299
337 334 333 330 325 318 313 310 307 305 302 299 296 291 285 281 279 277 274 273 271 270 269 268 267 265 261 258 256 256 256 255 255 256 257 258 259 258 257 255 254 253 253 252 251 249 247 243 239 236 233 231 230 230 231 232 232 232 230 230 231 234 237 238 239 241 245 250 254 258 261 265 269 273 277 281 284 287 289 292 294 296 298 298 299
343 340 338 337 332 326 320 316 312 308 305 303 300 296 289 283 279 278 276 274 272 270 268 267 265 263 262 261 259 257 256 256 257 258 259 260 261 259 255 252 251 252 252 251 249 247 244 239 234 230 228 228 228 229 230 231 232 233 233 234 236 238 239 239 242 245 250 255 259 262 266 270 274 278 282 285 287 289 292 293 295 296 298 298 299
347 346 344 342 339 334 327 322 317 313 310 308 306 303 297 288 281 278 277 275 273 272 270 268 266 263 261 260 259 259 259 260 261 262 263 264 263 259 254 251 250 250 250 249 247 244 240 236 232 230 230 231 232 233 234 235 235 236 236 236 237 238 239 242 246 251 255 259 262 266 270 274 278 282 284 286 288 290 292 294 295 296 298 300 301
350 349 347 345 343 339 334 328 322 318 315 314 312 309 305 296 286 280 277 276 274 273 272 269 267 265 262 260 258 258 259 261 264 266 267 266 263 258 253 251 250 250 250 248 246 243 240 238 235 233 233 233 235 236 236 236 237 239 239 238 239 240 243 247 251 256 260 263 266 270 274 277 281 284 286 287 289 291 292 294 296 298 300 301 303
351 349 348 347 345 342 338 332 327 323 320 319 316 313 311 306 296 286 281 279 277 275 273 270 268 266 263 261 260 260 261 262 264 266 266 265 261 255 251 249 250 250 248 245 243 241 239 238 237 236 236 235 235 236 236 237 238 240 242 242 243 245 248 252 256 259 263 266 269 272 276 278 281 284 286 288 290 292 294 296 298 300 302 303 304
352 350 348 347 345 343 341 337 332 327 324 322 320 317 314 312 305 296 289 285 282 278 275 271 268 265 263 262 262 262 263 264 265 265 265 263 259 254 249 246 247 248 245 241 239 239 237 236 237 237 237 237 236 236 236 238 239 241 243 245 247 249 252 255 258 260 263 266 269 272 275 279 282 284 287 289 292 295 297 299 300 302 304 305 306
353 350 348 347 346 345 343 341 337 331 327 325 322 319 316 313 309 304 298 293 288 284 280 275 270 266 263 262 262 262 263 264 265 264 263 261 257 253 248 245 245 246 243 239 238 237 236 235 236 237 237 238 238 238 238 240 241 243 245 247 250 253 255 257 259 262 265 268 271 275 278 282 285 288 290 292 294 297 299 300 301 303 306 307 308
354 351 349 348 347 346 345 343 339 335 330 327 323 321 317 314 310 307 303 299 295 291 287 282 277 271 266 264 263 264 264 265 265 263 260 257 255 252 247 244 244 244 242 238 237 237 237 236 236 237 237 238 239 239 241 242 244 246 248 250 252 254 257 259 262 266 268 271 275 279 283 286 288 290 292 294 296 298 300 301 302 304 306 308 310
354 353 351 348 347 346 346 344 341 337 333 329 325 323 320 317 314 310 307 304 300 296 291 288 285 279 273 269 268 267 266 266 264 260 256 254 252 249 246 244 244 243 241 238 236 237 237 238 238 238 238 239 240 241 242 244 246 248 251 252 254 256 260 263 266 270 273 275 278 281 285 287 289 291 292 295 297 299 301 302 303 305 306 308 310
353 353 351 348 346 346 345 344 341 339 336 331 328 325 323 320 317 314 311 308 305 300 295 292 290 287 282 277 274 271 268 265 263 258 253 251 250 247 245 244 243 242 241 239 237 237 237 238 239 239 239 240 241 242 244 246 249 251 253 255 257 259 263 267 271 274 277 278 280 283 285 287 289 291 293 295 297 299 300 302 304 306 307 308 309
350 351 350 348 346 345 345 345 343 341 339 335 331 328 324 321 319 317 315 311 308 304 300 296 294 292 287 282 278 275 270 266 263 258 252 248 247 245 244 243 241 239 238 239 239 239 239 239 239 240 240 241 243 244 246 248 250 252 254 256 259 262 266 270 273 276 278 280 282 284 286 288 289 290 292 293 296 298 300 301 303 305 307 308 309
347 348 348 347 346 344 344 344 343 342 340 338 335 331 327 323 320 318 316 314 311 309 306 303 299 296 291 285 280 278 274 269 265 259 252 247 245 243 242 240 238 237 238 239 240 240 241 241 241 241 242 243 244 245 246 248 250 252 255 257 260 263 267 270 273 275 278 280 282 284 286 288 288 289 290 292 294 297 299 300 301 303 305 307 309
345 346 346 346 344 343 341 341 341 340 339 338 336 333 329 326 323 319 316 314 312 310 309 308 305 300 295 289 283 279 276 271 266 261 254 249 246 243 240 238 237 236 237 239 239 240 240 241 241 241 242 242 243 244 245 247 249 252 255 258 260 263 266 269 272 274 276 279 282 284 285 287 288 289 290 291 293 295 298 300 301 302 304 305 307
343 344 344 345 343 341 339 337 337 337 338 337 335 332 330 328 325 320 317 314 311 308 308 309 308 304 298 292 285 281 277 272 268 263 257 251 246 242 239 237 236 236 236 236 237 237 238 238 239 239 240 241 242 243 245 248 251 254 257 259 261 263 266 269 271 274 276 278 281 283 285 286 288 289 290 292 293 295 297 299 301 302 303 303 304
341 341 342 343 343 341 338 336 335 335 335 335 333 331 329 327 325 321 318 316 312 308 308 309 309 307 302 297 291 285 278 273 270 267 259 252 246 241 239 237 236 236 236 235 235 235 235 235 235 236 238 239 241 243 245 249 252 255 257 259 261 263 265 268 270 273 275 277 279 282 285 287 288 289 291 293 294 296 297 298 300 301 301 302 302
339 340 340 341 341 341 339 336 334 333 332 332 331 329 327 325 324 322 320 317 313 310 308 309 311 309 306 302 299 291 282 275 273 269 262 254 247 242 240 238 236 234 234 234 234 234 234 234 235 235 236 238 239 242 245 248 251 253 256 259 261 263 265 267 269 272 275 277 279 282 285 288 289 291 293 294 295 296 296 296 297 297 298 300 300